EW1379 Weather Reports


time (UTC)temp
C
wind
direction
speed
KPH
gust
KPH
rain 1hr
cm
rain 24hr
cm
rain mn
cm
humidity
%
barometer
mb
20260507051046 6 284 0.0 4.8 0.00 1.40 0.00 92 1012.5
20260507050516 6 283 0.0 4.8 0.00 1.40 0.00 92 1012.6
20260507050048 6 269 0.0 0.0 0.00 1.40 0.00 92 1012.6
20260507045523 6 273 0.0 6.4 0.00 1.65 0.00 92 1012.6
20260507045050 6 277 3.2 6.4 0.00 1.65 0.00 92 1012.6
20260507044522 6 265 0.0 4.8 0.00 1.65 0.00 92 1012.5
20260507044049 6 275 0.0 6.4 0.00 1.65 0.00 92 1012.5
20260507043543 6 272 3.2 6.4 0.00 1.65 0.00 92 1012.5
20260507043023 6 287 1.6 6.4 0.00 1.65 0.00 92 1012.4
20260507042544 6 265 3.2 6.4 0.00 1.65 0.00 92 1012.3
20260507042026 6 261 1.6 6.4 0.00 1.65 0.00 92 1012.4
20260507041516 6 258 1.6 6.4 0.00 1.65 0.00 92 1012.4
20260507041032 6 254 0.0 6.4 0.00 1.65 0.00 92 1012.4
20260507040525 6 276 0.0 8.0 0.00 1.65 0.00 92 1012.4
20260507040036 6 269 0.0 8.0 0.00 1.65 0.00 92 1012.3
20260507035526 6 267 0.0 6.4 0.00 1.85 1.65 92 1012.3
20260507035038 6 267 3.2 6.4 0.00 1.85 1.65 92 1012.2
20260507034532 6 279 3.2 8.0 0.00 1.85 1.65 92 1012.3
20260507034035 6 257 3.2 9.7 0.00 1.85 1.65 92 1012.2
20260507033526 6 271 4.8 9.7 0.00 1.85 1.65 92 1012.1
20260507033050 6 285 1.6 6.4 0.00 1.85 1.65 92 1012.1
20260507032526 6 285 3.2 6.4 0.00 1.85 1.65 92 1012.1
20260507032046 6 274 1.6 4.8 0.00 1.85 1.65 92 1012.0
20260507031521 6 264 0.0 6.4 0.00 1.85 1.65 92 1012.0
20260507031059 6 264 3.2 6.4 0.00 1.85 1.65 92 1012.0
20260507030524 6 260 3.2 4.8 0.00 1.85 1.65 92 1011.9
20260507030017 6 267 0.0 6.4 0.00 2.06 1.65 92 1011.9
20260507025548 6 267 1.6 6.4 0.00 2.06 1.65 92 1011.9
20260507025037 6 274 1.6 6.4 0.00 2.06 1.65 92 1011.9
20260507024601 6 268 0.0 8.0 0.00 2.06 1.65 92 1012.0
20260507024028 6 269 4.8 8.0 0.00 2.06 1.65 92 1011.9
20260507023534 6 265 0.0 6.4 0.00 2.06 1.65 92 1011.9
20260507023046 6 277 3.2 6.4 0.00 2.06 1.65 92 1011.9
20260507022527 6 269 3.2 6.4 0.00 2.06 1.65 92 1012.0
20260507022033 6 277 0.0 4.8 0.00 2.06 1.65 91 1012.0
20260507021544 6 277 1.6 4.8 0.00 2.06 1.65 91 1012.1
20260507021021 6 267 0.0 8.0 0.00 2.06 1.65 91 1012.1
20260507020527 6 268 1.6 8.0 0.00 2.06 1.65 91 1012.2
20260507020021 6 269 1.6 8.0 0.00 2.06 1.65 91 1012.1
20260507015540 6 243 1.6 8.0 0.00 2.13 1.65 91 1012.2
20260507015028 6 283 1.6 8.0 0.00 2.13 1.65 91 1012.0
20260507014531 6 290 1.6 8.0 0.03 2.13 1.65 91 1011.9
20260507014020 6 294 3.2 11.3 0.03 2.13 1.65 91 1011.9
20260507013541 6 321 3.2 11.3 0.03 2.13 1.65 91 1012.0
20260507013029 7 293 3.2 12.9 0.03 2.13 1.65 91 1012.1
20260507012538 7 298 6.4 12.9 0.03 2.13 1.65 90 1012.1
20260507012114 7 296 4.8 11.3 0.03 2.13 1.65 90 1012.0
20260507011604 7 289 0.0 6.4 0.05 2.13 1.65 90 1011.9
20260507011038 7 277 0.0 6.4 0.08 2.13 1.65 90 1011.8
20260507010542 7 317 3.2 12.9 0.08 2.13 1.65 89 1011.7
20260507010035 7 306 4.8 12.9 0.10 2.13 1.65 89 1011.5
20260507005039 8 329 8.0 19.3 0.13 2.34 1.65 89 1011.2
20260507004547 8 277 3.2 6.4 0.10 2.31 1.63 90 1011.2
20260507004037 8 342 3.2 6.4 0.10 2.31 1.63 90 1010.9
20260507003620 8 355 0.0 4.8 0.10 2.31 1.63 89 1010.8
20260507003025 8 336 1.6 6.4 0.10 2.31 1.63 89 1010.7
20260507002554 8 336 0.0 8.0 0.10 2.31 1.63 89 1010.8
20260507002112 8 343 4.8 8.0 0.10 2.31 1.63 88 1010.8
20260507001520 8 277 1.6 9.7 0.05 2.26 1.57 87 1010.8
20260507001109 9 340 3.2 8.0 0.05 2.26 1.57 87 1010.6
20260507000535 9 5 3.2 4.8 0.05 2.26 1.57 86 1010.5
20260507000038 9 5 1.6 4.8 0.03 2.24 1.55 86 1010.5
20260506235550 9 13 3.2 4.8 0.00 2.44 1.52 86 1010.5
20260506235033 9 69 3.2 4.8 0.00 2.44 1.52 85 1010.4
20260506234533 9 69 0.0 1.6 0.00 2.44 1.52 85 1010.3
20260506233537 9 58 0.0 1.6 0.00 2.44 1.52 85 1010.0
20260506232522 9 339 0.0 0.0 0.00 2.44 1.52 85 1010.1
20260506232017 9 339 0.0 0.0 0.00 2.44 1.52 85 1010.1
20260506231551 9 339 0.0 0.0 0.00 2.44 1.52 85 1010.1
20260506231056 9 339 0.0 0.0 0.00 2.44 1.52 84 1010.1
20260506230553 9 339 0.0 0.0 0.00 2.44 1.52 84 1010.0
20260506230029 9 339 0.0 0.0 0.00 2.44 1.52 84 1010.0
20260506225544 9 329 0.0 0.0 0.00 2.44 1.52 84 1009.9
20260506224748 9 329 0.0 0.0 0.00 2.44 1.52 84 1009.8
20260506224106 9 321 0.0 0.0 0.00 2.44 1.52 84 1009.8
20260506223605 9 321 0.0 1.6 0.00 2.44 1.52 84 1009.9
20260506223024 9 313 0.0 4.8 0.00 2.44 1.52 84 1009.8
20260506222048 9 311 0.0 3.2 0.00 2.44 1.52 84 1009.8
20260506221529 9 309 0.0 0.0 0.00 2.44 1.52 84 1009.7
20260506221042 9 308 0.0 0.0 0.00 2.44 1.52 84 1009.6
20260506220551 9 308 0.0 0.0 0.00 2.44 1.52 84 1009.6
20260506220127 9 308 0.0 0.0 0.00 2.44 1.52 84 1009.7
20260506215538 9 308 0.0 0.0 0.00 2.44 1.52 83 1009.6
20260506215037 9 306 0.0 0.0 0.00 2.44 1.52 83 1009.6
20260506214545 9 306 0.0 3.2 0.00 2.44 1.52 83 1009.8
20260506213533 9 306 0.0 4.8 0.00 2.44 1.52 82 1010.0
20260506213037 9 326 0.0 4.8 0.00 2.44 1.52 82 1009.9
20260506212526 9 336 3.2 4.8 0.00 2.44 1.52 82 1009.8
20260506212046 9 336 0.0 0.0 0.00 2.44 1.52 82 1009.7
20260506211551 9 336 0.0 6.4 0.00 2.44 1.52 82 1009.7
20260506211036 9 336 0.0 6.4 0.00 2.44 1.52 82 1009.7
20260506210627 9 336 0.0 4.8 0.00 2.44 1.52 83 1009.7
20260506210023 9 336 0.0 0.0 0.00 2.44 1.52 83 1009.7
20260506205544 9 336 0.0 0.0 0.00 2.44 1.52 83 1009.6
20260506205022 9 338 0.0 8.0 0.00 2.44 1.52 83 1009.5
20260506204049 9 308 0.0 0.0 0.00 2.44 1.52 84 1009.5
20260506203641 9 273 0.0 3.2 0.00 2.44 1.52 84 1009.7
20260506203027 8 273 0.0 8.0 0.00 2.44 1.52 83 1009.8
20260506202538 8 274 3.2 8.0 0.00 2.44 1.52 84 1009.8
20260506202035 8 277 0.0 8.0 0.00 2.44 1.52 85 1009.7
20260506201557 8 280 1.6 8.0 0.00 2.44 1.52 85 1009.7
20260506201032 8 296 0.0 8.0 0.00 2.44 1.52 86 1009.7
20260506200637 8 309 3.2 8.0 0.00 2.44 1.52 86 1009.8
20260506200053 8 360 1.6 8.0 0.00 2.44 1.52 86 1009.7
20260506195612 8 343 3.2 9.7 0.00 2.44 1.52 87 1009.7
20260506195036 8 355 6.4 9.7 0.00 2.44 1.52 87 1009.6
20260506194549 8 340 1.6 6.4 0.00 2.44 1.52 88 1009.4
20260506194046 8 350 3.2 6.4 0.00 2.44 1.52 88 1009.5
20260506193616 8 12 1.6 6.4 0.00 2.44 1.52 89 1009.5
20260506193030 8 355 1.6 9.7 0.00 2.44 1.52 88 1009.5
20260506192056 8 337 0.0 9.7 0.00 2.44 1.52 89 1009.7
20260506191529 7 332 4.8 9.7 0.00 2.44 1.52 89 1009.7
20260506191037 7 343 8.0 9.7 0.00 2.44 1.52 89 1009.7
20260506190612 7 345 6.4 9.7 0.00 2.44 1.52 90 1009.7
20260506190224 7 11 4.8 9.7 0.00 2.44 1.52 90 1009.7
20260506185603 7 334 4.8 12.9 0.00 2.44 1.52 90 1009.7
20260506185053 7 323 6.4 12.9 0.00 2.44 1.52 90 1009.6
20260506184525 7 323 8.0 16.1 0.00 2.44 1.52 91 1009.6
20260506184042 7 19 8.0 16.1 0.00 2.44 1.52 91 1009.5
20260506183556 7 355 9.7 14.5 0.00 2.44 1.52 91 1009.6
20260506183022 7 336 9.7 16.1 0.00 2.44 1.52 91 1009.6
20260506182639 7 332 9.7 16.1 0.00 2.44 1.52 91 1009.6
20260506182019 7 332 9.7 16.1 0.00 2.44 1.52 91 1009.6
20260506181540 7 355 11.3 16.1 0.00 2.44 1.52 91 1009.6
20260506181040 7 330 8.0 12.9 0.00 2.44 1.52 92 1009.6
20260506180558 7 339 8.0 14.5 0.00 2.44 1.52 91 1009.7
20260506180122 7 341 8.0 14.5 0.00 2.44 1.52 92 1009.8
20260506175532 7 332 6.4 12.9 0.00 2.44 1.52 92 1009.6
20260506175034 7 336 6.4 12.9 0.00 2.44 1.52 92 1009.4
20260506174539 7 325 4.8 11.3 0.00 2.44 1.52 92 1009.3
20260506174045 7 329 4.8 14.5 0.00 2.44 1.52 92 1009.1
20260506173614 7 347 9.7 14.5 0.00 2.44 1.52 92 1009.1
20260506173044 7 319 6.4 12.9 0.00 2.44 1.52 92 1009.0
20260506172527 7 337 4.8 12.9 0.00 2.44 1.52 93 1008.9
20260506172047 7 346 8.0 14.5 0.00 2.44 1.52 93 1008.8
20260506171536 7 355 6.4 11.3 0.00 2.44 1.52 93 1008.7
20260506171039 7 324 6.4 12.9 0.00 2.44 1.52 93 1008.8
20260506170605 7 346 6.4 12.9 0.00 2.44 1.52 93 1008.8
20260506170033 7 331 6.4 12.9 0.00 2.44 1.52 93 1008.9
20260506165548 7 333 6.4 11.3 0.00 2.44 1.52 93 1008.8
20260506165029 7 334 6.4 12.9 0.00 2.44 1.52 94 1008.9
20260506164538 7 346 8.0 14.5 0.00 2.44 1.52 94 1008.8
20260506164139 7 355 8.0 14.5 0.00 2.44 1.52 94 1008.7
20260506163548 7 360 8.0 12.9 0.00 2.44 1.52 94 1008.6
20260506163024 7 355 6.4 12.9 0.00 2.44 1.52 94 1008.6
20260506162544 7 355 6.4 11.3 0.00 2.44 1.52 94 1008.6
20260506162047 7 5 6.4 12.9 0.00 2.44 1.52 94 1008.6
20260506161544 7 350 9.7 12.9 0.00 2.44 1.52 94 1008.6
20260506161026 7 327 9.7 14.5 0.00 2.44 1.52 94 1008.8
20260506160612 7 355 11.3 14.5 0.00 2.44 1.52 94 1008.7
20260506160120 7 345 8.0 11.3 0.00 2.44 1.52 94 1008.8
20260506155544 7 20 8.0 12.9 0.00 2.44 1.52 94 1008.8
20260506154607 7 13 8.0 12.9 0.00 2.44 1.52 94 1008.7
20260506154054 7 355 8.0 11.3 0.00 2.44 1.52 94 1008.7
20260506153534 7 347 8.0 11.3 0.00 2.44 1.52 94 1008.7
20260506153033 7 329 8.0 11.3 0.03 2.44 1.52 95 1008.7
20260506152545 7 33 6.4 11.3 0.03 2.44 1.52 95 1008.6
20260506152149 7 26 6.4 9.7 0.03 2.44 1.52 95 1008.8
20260506151021 7 23 8.0 12.9 0.03 2.44 1.52 95 1008.7
20260506150529 7 344 9.7 12.9 0.03 2.44 1.52 94 1008.7
20260506150029 7 15 8.0 11.3 0.03 2.44 1.52 95 1008.6
20260506145535 7 346 8.0 12.9 0.03 2.44 1.52 95 1008.7
20260506145031 7 351 8.0 12.9 0.05 2.44 1.52 95 1008.5
20260506144540 7 339 4.8 9.7 0.05 2.44 1.52 95 1008.4
20260506144052 7 24 6.4 9.7 0.05 2.44 1.52 95 1008.3
20260506142520 7 11 6.4 9.7 0.03 2.41 1.50 95 1008.2
20260506142028 7 360 6.4 9.7 0.03 2.41 1.50 95 1008.2
20260506141531 7 29 3.2 8.0 0.03 2.41 1.50 95 1008.2
20260506141043 7 19 6.4 8.0 0.03 2.41 1.50 95 1008.3
20260506140533 7 24 4.8 8.0 0.03 2.41 1.50 95 1008.3
20260506140026 7 13 4.8 8.0 0.03 2.41 1.50 95 1008.4
20260506135558 6 17 4.8 8.0 0.03 2.41 1.50 95 1008.4
20260506135049 6 5 4.8 8.0 0.00 2.39 1.47 95 1008.4
20260506134539 6 18 3.2 6.4 0.00 2.39 1.47 95 1008.3
20260506134027 6 355 3.2 6.4 0.00 2.39 1.47 95 1008.3
20260506133534 6 5 1.6 6.4 0.00 2.39 1.47 95 1008.3
20260506133047 6 338 1.6 6.4 0.00 2.39 1.47 94 1008.3
20260506132533 6 27 3.2 6.4 0.00 2.39 1.47 94 1008.1
20260506132056 6 25 0.0 8.0 0.03 2.39 1.47 94 1008.1
20260506131530 6 28 1.6 8.0 0.03 2.39 1.47 94 1008.1
20260506131029 6 42 4.8 8.0 0.03 2.39 1.47 94 1008.0
20260506130543 6 20 0.0 0.0 0.03 2.39 1.47 95 1008.2
20260506130100 6 27 0.0 0.0 0.05 2.39 1.47 95 1008.3
20260506125027 6 351 1.6 4.8 0.05 2.39 1.47 94 1008.3
20260506124553 6 19 0.0 4.8 0.05 2.39 1.47 95 1008.4
20260506124059 6 10 1.6 4.8 0.05 2.39 1.47 95 1008.4
20260506123539 6 9 0.0 4.8 0.05 2.39 1.47 95 1008.3
20260506122529 6 350 4.8 8.0 0.05 2.39 1.47 95 1008.3
20260506122052 6 9 1.6 6.4 0.03 2.36 1.45 95 1008.3
20260506121527 6 30 1.6 8.0 0.03 2.36 1.45 95 1008.3
20260506121046 6 24 6.4 9.7 0.05 2.36 1.45 95 1008.3
20260506120525 6 22 8.0 12.9 0.05 2.36 1.45 94 1008.5
20260506120038 6 42 6.4 11.3 0.03 2.34 1.42 94 1008.4
20260506115549 6 19 4.8 11.3 0.03 2.34 1.42 95 1008.4
20260506114542 6 37 8.0 12.9 0.05 2.34 1.42 94 1008.2
20260506114025 6 32 4.8 11.3 0.05 2.34 1.42 95 1008.1
20260506113553 6 26 8.0 14.5 0.05 2.34 1.42 94 1007.9
20260506113031 6 94 4.8 11.3 0.08 2.34 1.42 95 1008.0
20260506112540 6 61 6.4 11.3 0.08 2.34 1.42 95 1007.9
20260506112029 6 89 4.8 8.0 0.10 2.34 1.42 95 1007.8
20260506111530 6 42 4.8 9.7 0.10 2.34 1.42 95 1008.1
20260506111024 6 14 4.8 12.9 0.10 2.31 1.40 95 1008.1
20260506110537 6 15 6.4 12.9 0.13 2.31 1.40 95 1007.9
20260506110057 6 5 6.4 9.7 0.13 2.31 1.40 95 1008.0
20260506105548 6 38 6.4 11.3 0.13 2.31 1.40 94 1008.3
20260506105044 6 34 6.4 11.3 0.13 2.29 1.37 95 1008.2
20260506104610 6 19 4.8 11.3 0.15 2.29 1.37 95 1008.1
20260506104030 6 15 6.4 11.3 0.15 2.29 1.37 95 1008.2
20260506103522 6 51 8.0 16.1 0.18 2.29 1.37 95 1008.3
20260506103039 7 12 8.0 16.1 0.18 2.26 1.35 95 1008.5
20260506102535 7 355 8.0 11.3 0.15 2.24 1.32 95 1008.6
20260506102045 7 42 8.0 11.3 0.15 2.24 1.32 95 1008.5
20260506101546 7 28 6.4 8.0 0.15 2.24 1.32 95 1008.3
20260506101052 7 355 4.8 9.7 0.13 2.21 1.30 95 1008.5
20260506100527 7 17 8.0 11.3 0.13 2.18 1.27 95 1008.2
20260506100038 7 9 8.0 11.3 0.13 2.18 1.27 94 1008.1
20260506095534 7 342 4.8 8.0 0.13 2.16 1.24 94 1008.3
20260506095024 7 348 4.8 9.7 0.10 2.13 1.22 94 1008.1
20260506094605 7 39 6.4 9.7 0.13 2.13 1.22 94 1008.1
20260506094027 7 30 4.8 9.7 0.13 2.13 1.22 94 1008.0
20260506093522 7 23 6.4 9.7 0.13 2.11 1.19 94 1008.1
20260506093022 7 360 6.4 8.0 0.10 2.08 1.17 94 1008.2
20260506092533 7 25 4.8 9.7 0.10 2.08 1.17 94 1007.8
20260506092028 7 341 6.4 9.7 0.13 2.08 1.17 94 1007.8
20260506091523 7 40 1.6 12.9 0.15 2.08 1.17 94 1007.7
20260506091037 7 5 8.0 12.9 0.15 2.08 1.17 94 1007.6
20260506090535 7 30 4.8 12.9 0.18 2.06 1.14 94 1007.9
20260506090052 7 50 9.7 12.9 0.18 2.06 1.14 95 1007.8
20260506085602 7 344 8.0 14.5 0.18 2.03 1.12 94 1008.2
20260506085029 7 350 6.4 16.1 0.20 2.03 1.12 94 1008.3
20260506084523 7 19 8.0 16.1 0.20 2.01 1.09 94 1008.0
20260506084033 7 83 6.4 17.7 0.18 1.98 1.07 94 1008.0
20260506083519 7 28 9.7 17.7 0.20 1.98 1.07 94 1008.0
20260506083037 7 48 9.7 17.7 0.23 1.98 1.07 94 1008.3
20260506082528 7 25 8.0 14.5 0.23 1.98 1.07 94 1008.3
20260506082048 7 19 8.0 14.5 0.23 1.96 1.04 94 1008.5
20260506081539 7 33 4.8 11.3 0.23 1.93 1.02 94 1008.6
20260506081035 7 26 6.4 11.3 0.25 1.93 1.02 94 1008.7
20260506080524 7 28 6.4 11.3 0.20 1.88 0.97 94 1008.6
20260506073023 7 26 9.7 19.3 0.30 1.75 0.84 94 1008.4
20260506072518 7 30 9.7 20.9 0.30 1.73 0.81 94 1008.3
20260506072018 8 16 9.7 17.7 0.33 1.73 0.81 94 1008.3
20260506071525 8 23 11.3 17.7 0.33 1.70 0.79 94 1008.2
20260506071107 8 25 11.3 16.1 0.30 1.68 0.76 94 1008.2
20260506070531 8 30 8.0 16.1 0.33 1.68 0.76 94 1008.3
20260506062027 8 30 6.4 12.9 0.15 1.40 0.48 94 1008.2
20260506061521 8 13 6.4 9.7 0.13 1.37 0.46 94 1008.2
20260506061031 8 42 6.4 9.7 0.13 1.35 0.43 94 1008.3
20260506060529 8 22 0.0 6.4 0.15 1.35 0.43 94 1008.4